Location: Black River Observatory
(43.1000°N, 82.6200°W)
Time: 05:47:47
(UTC-05:00)

Daily predictions for brighter satellites

Satellite Brightness Start Highest point End
(mag) Time Altitude Azimuth Time Altitude Azimuth Time Altitude Azimuth
Cosmos 2237 Rocket 4.5 04:07:43 20° E 04:07:43 20° E 04:09:51 10° ESE
Cosmos 2297 Rocket 4.4 04:17:59 18° ESE 04:19:29 20° E 04:23:33 10° NE
Cosmos 2227 Rocket 3.7 04:32:14 33° E 04:32:14 33° E 04:36:27 10° NE
Cosmos 2333 Rocket 3.4 05:01:08 34° SSE 05:01:08 34° SSE 05:04:15 10° SSE
Cosmos 2082 4.4 04:58:06 50° SE 04:58:36 51° ESE 05:04:09 10° NE
Cosmos 540 Rocket 4.4 05:00:07 45° E 05:00:07 45° E 05:04:36 10° SE
COSMO-SKYMED 1 4.3 04:59:12 10° SE 05:02:54 31° ENE 05:02:54 31° ENE
Tsikada Rocket 4.4 05:05:24 10° N 05:11:46 64° E 05:18:02 10° SSE
ISS -0.5 05:23:15 17° ENE 05:23:15 17° ENE 05:24:18 10° E
USA 234 3.9 05:15:58 10° E 05:22:09 46° NNE 05:24:28 34° NNW
Cosmos 2219 Rocket 3.9 05:26:01 20° S 05:26:01 20° S 05:27:43 10° S
Cosmos 1818 4.2 05:24:42 45° N 05:24:42 45° N 05:28:38 10° NNE
Meteor 2-17 Rocket 4.3 05:21:39 10° S 05:27:41 88° W 05:33:46 10° N
Feng Yun 1-1 Rocket 4.2 05:31:59 10° N 05:36:42 59° NNW 05:36:42 59° NNW
Cosmos 1725 Rocket 3.8 05:35:48 10° SSW 05:42:01 76° W 05:48:21 10° N
Cosmos 1864 Rocket 4.3 05:36:56 10° SSW 05:43:02 75° W 05:49:13 10° N
Cosmos 2237 Rocket 2.5 05:49:36 46° WSW 05:49:36 46° WSW 05:54:38 10° S
SKYMED 2 3.4 05:46:38 10° S 05:50:59 81° W 05:51:33 65° NNW
SL-16 R/B 2.2 05:48:45 28° NNW 05:51:53 81° ENE 05:57:34 10° SSE
NOAA 6 3.9 05:53:42 10° N 05:58:51 64° WNW 06:03:57 10° SSW
Cosmos 2297 Rocket 2.2 05:59:57 27° SW 06:03:01 59° WNW 06:08:39 10° NNE
SL-8 R/B 4.3 06:04:29 37° NW 06:05:45 46° N 06:10:23 10° E
Cosmos 968 Rocket 3.7 06:02:46 10° S 06:08:00 73° ESE 06:13:16 10° NNE
SeaSat 1 4.2 06:06:14 10° N 06:07:51 16° NNW 06:07:51 16° NNW
CZ-2C R/B 4.1 06:08:47 10° NNE 06:12:56 32° E 06:17:01 10° SSE
SL-14 R/B 3.5 06:10:16 10° N 06:14:20 76° E 06:18:23 10° SSE
Meteor 1-16 Rocket 4.3 06:09:13 10° S 06:14:40 76° E 06:20:01 10° NNE
Cosmos 2227 Rocket 2.7 06:14:08 33° W 06:15:23 37° WNW 06:20:37 10° N
Cosmos 1271 Rocket 3.5 06:12:00 10° S 06:15:44 52° E 06:19:27 10° NNE
CZ-4 R/B 3.0 06:15:01 10° NNE 06:18:47 37° E 06:22:36 10° SSE
USA 229 DEB 3.9 06:16:20 23° NW 06:20:45 57° WSW 06:27:47 10° SSE
USA 229 3.9 06:16:24 23° NW 06:20:51 57° WSW 06:27:53 10° SSE
Cosmos 2221 3.4 06:19:17 10° S 06:23:30 53° E 06:27:44 10° NNE
Meteor 1-28 Rocket 3.3 06:20:05 10° S 06:23:45 51° W 06:25:25 28° NW
Aureole 2 Rocket 3.6 06:28:32 30° WNW 06:29:32 34° WSW 06:33:21 10° SSW
Cosmos 1743 Rocket 4.2 06:28:19 28° WNW 06:29:34 33° W 06:33:30 10° SSW
Coronas F rocket 4.4 06:30:31 10° NE 06:31:26 12° ENE 06:32:23 10° E
IDEFIX/ARIANE 42P 3.4 06:27:33 10° NNE 06:32:44 54° E 06:37:53 10° S
CZ-3 Stage 3 4.0 06:28:45 10° SW 06:32:58 30° SSE 06:46:45 10° ESE
Cosmos 2233 Rocket 4.2 06:27:59 10° SSW 06:33:59 49° WNW 06:40:05 10° N
NOSS 3-1 (A) 4.3 06:27:12 11° NNW 06:34:35 70° NE 06:42:54 10° SE
Cosmos 1777 Rocket 4.4 06:29:35 10° S 06:34:45 66° ESE 06:39:56 10° NNE
SMAP 4.1 06:31:56 10° NNE 06:36:28 49° E 06:40:58 10° S
Meteor 1-4 Rocket 3.0 06:34:37 10° SSW 06:38:07 39° WNW 06:41:42 10° N
COSMO-SKYMED 1 3.6 06:35:37 10° SSW 06:39:11 25° W 06:40:07 23° WNW
Cosmos 1842 Rocket 4.0 06:35:49 10° SW 06:39:50 37° WNW 06:43:55 10° N
Cosmos 2333 Rocket 4.0 06:43:13 12° WSW 06:43:13 12° WSW 06:44:14 10° WSW
ATLAS 2AS CENTAUR R/B 4.3 06:35:46 10° NNW 06:43:02 34° NE 06:49:59 10° E
Cosmos 1184 Rocket 4.3 06:42:38 10° N 06:45:47 38° ENE 06:48:53 10° SSE
Cosmos 1626 2.9 06:43:03 10° N 06:46:45 54° E 06:50:24 10° SSE
Cosmos 2034 Rocket 4.2 06:42:57 10° S 06:49:05 77° E 06:55:21 10° N
Cosmos 2058 2.9 06:45:28 10° NNW 06:49:30 57° W 06:53:33 10° S
Cosmos 1805 Rocket 3.6 06:45:04 10° N 06:49:32 82° E 06:53:56 10° S
CSL-04 Debris 4.2 06:48:47 10° N 06:54:12 61° WNW 06:59:34 10° SSW
Cosmos 1603 3.7 06:49:54 10° NNW 06:55:33 84° WSW 07:01:12 10° SSE
Cosmos 1538 Rocket 4.3 06:51:20 10° NNW 06:56:31 48° WSW 07:01:38 10° S
ISS -3.1 06:55:55 19° WNW 06:58:03 54° SW 07:01:15 10° SE
Nadezhda 4 Rocket 4.4 06:54:38 10° N 07:01:00 72° E 07:07:17 10° SSE
Cosmos 2151 3.7 06:57:50 10° NNW 07:01:33 31° W 07:05:17 10° SSW
Cosmos 1908 4.3 06:58:35 10° SSE 07:02:16 48° E 07:05:58 10° NNE
Cosmos 923 Rocket 4.0 06:58:49 10° NNW 07:04:04 89° WSW 07:09:19 10° SSE
Meteor 1-29 3.5 07:00:49 10° SSE 07:04:16 61° ENE 07:07:44 10° N
USA 234 3.4 06:58:28 10° SE 07:04:59 66° SW 07:11:32 10° NW
ERBS 2.3 07:03:12 13° NW 07:06:11 80° SW 07:09:35 10° SE
Helios 1B rocket 2.4 07:02:14 10° SSE 07:06:21 89° ENE 07:10:29 10° NNW
Cosmos 2263 Rocket 4.0 07:02:44 10° S 07:07:53 37° ESE 07:13:03 10° NE
Ariane Rocket 3.7 07:05:33 10° N 07:09:57 30° WNW 07:14:21 10° SW
SJ-7 4.3 07:07:33 10° N 07:11:33 70° WNW 07:15:33 10° SSW
MOS 1 4.4 07:08:02 10° NNE 07:13:47 90° WNW 07:19:29 10° SSW
Cosmos 1680 Rocket 3.6 07:08:30 10° NNW 07:13:50 86° ENE 07:19:10 10° SSE
ATLAS CENTAUR R/B 4.3 07:11:18 10° NNW 07:15:04 23° NNE 07:22:55 10° ENE
Cosmos 1356 Rocket 3.4 07:11:38 10° NNW 07:15:39 58° W 07:19:41 10° S
Cosmos 1092 Rocket 4.5 07:09:22 10° N 07:15:41 67° E 07:21:53 10° SSE
NOSS 3-1 (C) 4.2 07:09:22 10° NW 07:16:51 60° WSW 07:25:00 10° SSE
Cosmos 1633 Rocket 3.0 07:14:05 10° N 07:18:29 86° W 07:22:49 10° S
Cosmos 389 Rocket 2.9 07:15:16 10° S 07:18:54 71° E 07:22:35 10° NNE
Sich 1 3.0 07:14:45 10° NNW 07:19:08 74° W 07:23:27 10° S
Cosmos 1464 Rocket 4.3 07:15:26 10° SSW 07:21:30 46° WNW 07:27:33 10° N
Cosmos 2227 4.3 07:17:59 10° SW 07:23:29 55° WNW 07:29:00 10° NNE
Cosmos 1328 Rocket 4.0 07:19:39 10° S 07:23:55 66° E 07:28:15 10° NNE
CSL-04 Rocket 4.5 07:21:50 10° N 07:26:17 28° WNW 07:30:42 10° WSW
Genesis I 3.6 07:24:09 10° NW 07:27:58 49° WSW 07:31:44 10° SSE
Cosmos 1703 4.0 07:24:39 10° NNW 07:28:11 33° W 07:31:43 10° SSW
